Dane County Regional Airport (Madison, WI) (MSN)


Airport Diagram
Current Weather/Forecast (VFR Conditions)
METAR KMSN 240753Z AUTO 32003KT 10SM CLR 00/M05 A2992 RMK AO2 SLP140 T00001050
TAF

All Charts
General
Chart Name Download
AIRPORT DIAGRAM
TAKEOFF MINIMUMS
ALTERNATE MINIMUMS
HOT SPOT
LAHSO

Approaches
Chart Name Download
ILS OR LOC RWY 18
ILS OR LOC RWY 21
ILS OR LOC/DME RWY 36
ILS RWY 36 (SA CAT I)
ILS RWY 18 (SA CAT I - II)
ILS RWY 36 (CAT II - III)
RNAV (GPS) RWY 03
RNAV (GPS) RWY 14
RNAV (GPS) RWY 18
RNAV (GPS) RWY 21
RNAV (GPS) RWY 32
RNAV (GPS) RWY 36
VOR RWY 14
VOR RWY 18
VOR RWY 21
VOR RWY 32
VOR RWY 36
HI-TACAN RWY 18
HI-TACAN RWY 36